GW1296 Weather Reports


time (UTC)temp
F
wind
direction
speed
knots
gust
knots
rain 1hr
in
rain 24hr
in
rain mn
in
humidity
%
barometer
mb
20260508020034 49 0 0.0 0.0 0.00 0.00 0.00 81 1013.7
20260508014533 49 0 0.0 0.0 0.00 0.00 0.00 79 1013.7
20260508014530 49 248 0.0 0.0 0.00 0.00 0.00 79 1014.7
20260508013033 50 0 0.0 0.0 0.00 0.00 0.00 78 1013.6
20260508013027 50 248 0.0 0.0 0.00 0.00 0.00 79 1014.6
20260508011544 51 0 0.0 2.6 0.00 0.00 0.00 78 1013.7
20260508011526 51 248 0.0 2.6 0.00 0.00 0.00 79 1014.6
20260508010039 52 0 0.0 1.7 0.00 0.00 0.00 78 1013.8
20260508010026 52 259 0.0 1.7 0.00 0.00 0.00 78 1014.8
20260508004538 52 259 0.0 1.7 0.00 0.00 0.00 77 1013.7
20260508004521 52 259 0.0 0.9 0.00 0.00 0.00 78 1014.7
20260508003038 52 0 0.9 7.0 0.00 0.00 0.00 77 1013.6
20260508003020 52 234 0.9 6.1 0.00 0.00 0.00 78 1014.7
20260508001539 52 242 2.6 6.1 0.00 0.00 0.00 77 1013.7
20260508001518 52 245 2.6 6.1 0.00 0.00 0.00 77 1014.8
20260508000044 53 252 1.7 6.1 0.00 0.00 0.00 76 1013.8
20260508000016 53 252 1.7 5.2 0.00 0.00 0.00 77 1014.8
20260507234542 53 254 0.9 3.5 0.00 0.00 0.00 76 1013.8
20260507234514 53 254 0.9 2.6 0.00 0.00 0.00 76 1014.8
20260507233040 53 0 0.0 2.6 0.00 0.00 0.00 75 1013.6
20260507233014 53 252 0.0 2.6 0.00 0.00 0.00 76 1014.7
20260507231537 53 0 0.0 3.5 0.00 0.00 0.00 75 1013.6
20260507231517 53 233 0.0 3.5 0.00 0.00 0.00 75 1014.7
20260507230039 53 0 0.0 6.1 0.00 0.00 0.00 74 1013.6
20260507230010 53 189 0.0 6.1 0.00 0.00 0.00 74 1014.7
20260507224539 53 123 0.9 7.0 0.00 0.00 0.00 74 1013.4
20260507224508 53 138 0.9 7.0 0.00 0.00 0.00 74 1014.6
20260507223036 53 260 0.9 8.7 0.00 0.00 0.00 73 1013.2
20260507223008 53 238 0.9 8.7 0.00 0.00 0.00 74 1014.4
20260507221534 53 298 0.9 3.5 0.00 0.00 0.00 74 1013.2
20260507221508 53 290 0.0 4.3 0.00 0.00 0.00 74 1014.4
20260507220033 53 0 0.0 4.3 0.00 0.00 0.00 74 1013.1
20260507220006 53 284 0.0 4.3 0.00 0.00 0.00 74 1014.3
20260507214545 54 0 0.0 3.5 0.00 0.00 0.00 74 1013.1
20260507214506 54 289 0.0 3.5 0.00 0.00 0.00 74 1014.3
20260507213042 53 200 0.9 6.1 0.00 0.00 0.00 74 1013.0
20260507213009 54 176 0.9 6.1 0.00 0.00 0.00 74 1014.0
20260507211546 54 286 2.6 6.1 0.00 0.00 0.00 74 1012.9
20260507211505 54 180 2.6 5.2 0.00 0.00 0.00 74 1014.1
20260507210034 54 225 0.0 5.2 0.00 0.00 0.00 74 1012.7
20260507210007 54 225 0.0 3.5 0.00 0.00 0.00 74 1013.9
20260507204541 54 254 0.9 6.1 0.00 0.00 0.00 73 1012.6
20260507204508 54 254 0.9 6.1 0.00 0.00 0.00 73 1013.8
20260507203039 54 0 0.9 7.0 0.00 0.00 0.00 72 1012.4
20260507203003 54 247 0.9 7.0 0.00 0.00 0.00 72 1013.6
20260507201606 54 180 2.6 7.8 0.00 0.00 0.00 72 1013.5
20260507201539 54 273 2.6 7.0 0.00 0.00 0.00 72 1012.2
20260507200034 55 259 2.6 10.4 0.00 0.00 0.00 71 1012.2
20260507200002 55 263 2.6 7.0 0.00 0.00 0.00 72 1013.4
20260507194540 55 237 2.6 7.8 0.00 0.00 0.00 71 1012.1
20260507194503 55 265 3.5 7.8 0.00 0.00 0.00 71 1013.3
20260507193048 56 248 3.5 10.4 0.00 0.00 0.00 70 1011.9
20260507193001 56 248 3.5 10.4 0.00 0.00 0.00 70 1013.2
20260507191617 56 217 1.7 8.7 0.00 0.00 0.00 69 1013.1
20260507191540 56 244 2.6 9.6 0.00 0.00 0.00 68 1011.8
20260507190100 57 252 2.6 9.6 0.00 0.00 0.00 68 1013.0
20260507190040 57 251 2.6 9.6 0.00 0.00 0.00 68 1011.6
20260507184608 57 259 1.7 7.0 0.00 0.00 0.00 67 1012.8
20260507184535 57 259 2.6 7.0 0.00 0.00 0.00 66 1011.6
20260507183104 58 239 1.7 6.1 0.00 0.00 0.00 65 1012.8
20260507183039 58 245 1.7 6.1 0.00 0.00 0.00 64 1011.5
20260507181557 57 198 1.7 6.1 0.00 0.00 0.00 64 1012.8
20260507181540 57 192 2.6 7.0 0.00 0.00 0.00 63 1011.5
20260507180100 57 265 0.9 7.0 0.00 0.00 0.00 66 1012.6
20260507180040 57 265 0.9 7.0 0.00 0.00 0.00 66 1011.4
20260507174556 57 119 0.9 3.5 0.00 0.00 0.00 73 1012.6
20260507173057 58 119 0.0 2.6 0.00 0.00 0.00 74 1012.6
20260507173036 58 0 0.0 2.6 0.00 0.00 0.00 73 1011.5
20260507171555 57 120 0.0 3.5 0.00 0.00 0.00 76 1012.6
20260507171545 57 0 0.0 4.3 0.00 0.00 0.00 75 1011.4
20260507170056 57 194 0.9 4.3 0.00 0.00 0.00 75 1012.7
20260507170039 57 128 0.9 5.2 0.00 0.00 0.00 74 1011.4
20260507164617 57 142 0.9 2.6 0.00 0.00 0.00 74 1012.6
20260507164539 57 137 0.0 4.3 0.00 0.00 0.00 74 1011.5
20260507163054 58 126 0.9 4.3 0.00 0.00 0.00 73 1012.7
20260507163039 58 130 0.9 6.1 0.00 0.00 0.00 72 1011.4
20260507161556 58 140 0.9 4.3 0.00 0.00 0.00 70 1012.6
20260507161540 58 148 1.7 5.2 0.00 0.00 0.00 70 1011.4
20260507160052 59 140 1.7 7.8 0.00 0.00 0.00 68 1012.5
20260507160048 60 156 1.7 7.8 0.00 0.00 0.00 67 1011.3
20260507154552 60 138 1.7 5.2 0.00 0.00 0.00 59 1012.6
20260507154531 60 161 0.9 5.2 0.00 0.00 0.00 57 1011.3
20260507153051 60 216 0.9 7.8 0.00 0.00 0.00 57 1012.5
20260507153039 60 205 0.9 7.8 0.00 0.00 0.00 57 1011.4
20260507151550 60 181 0.0 5.2 0.00 0.00 0.00 58 1012.6
20260507151539 60 0 0.9 5.2 0.00 0.00 0.00 56 1011.4
20260507150049 60 234 1.7 4.3 0.00 0.00 0.00 55 1012.7
20260507150038 60 186 0.9 7.0 0.00 0.00 0.00 55 1011.5
20260507144547 60 121 1.7 7.0 0.00 0.00 0.00 56 1012.8
20260507144540 60 116 1.7 7.0 0.00 0.00 0.00 56 1011.5
20260507143101 60 240 1.7 7.8 0.00 0.00 0.00 57 1012.9
20260507143037 60 165 2.6 7.8 0.00 0.00 0.00 56 1011.7
20260507141604 59 158 0.9 5.2 0.00 0.00 0.00 61 1012.9
20260507141537 59 159 1.7 6.1 0.00 0.00 0.00 60 1011.7
20260507140045 58 114 1.7 7.8 0.00 0.00 0.00 70 1013.0
20260507134544 59 117 1.7 7.8 0.00 0.00 0.00 69 1013.1
20260507134533 59 43 1.7 7.8 0.00 0.00 0.00 68 1011.7
20260507133044 60 174 0.9 3.5 0.00 0.00 0.00 62 1013.1
20260507133037 60 155 0.9 11.3 0.00 0.00 0.00 59 1011.8
20260507131607 61 0 0.0 6.1 0.00 0.00 0.00 51 1011.7
20260507131552 61 170 0.0 4.3 0.00 0.00 0.00 52 1013.0
20260507130042 60 224 0.9 5.2 0.00 0.00 0.00 53 1013.1
20260507130039 60 300 1.7 6.1 0.00 0.00 0.00 52 1011.7
20260507124540 60 273 1.7 7.0 0.00 0.00 0.00 53 1011.8
20260507124536 60 215 1.7 7.0 0.00 0.00 0.00 54 1013.3
20260507123041 60 0 0.9 7.0 0.00 0.00 0.00 54 1011.9
20260507123033 60 199 0.0 7.0 0.00 0.00 0.00 55 1013.3
20260507121541 59 213 1.7 4.3 0.00 0.00 0.00 54 1012.1
20260507121530 59 209 1.7 4.3 0.00 0.00 0.00 54 1013.3
20260507120041 59 0 0.0 1.7 0.00 0.00 0.00 54 1012.2
20260507120028 59 194 0.0 1.7 0.00 0.00 0.00 55 1013.4
20260507114534 59 280 0.0 2.6 0.00 0.00 0.00 56 1012.2
20260507114529 59 280 0.0 2.6 0.00 0.00 0.00 56 1013.4
20260507113100 57 0 0.0 1.7 0.00 0.00 0.00 57 1012.3
20260507113023 57 324 0.0 1.7 0.00 0.00 0.00 57 1013.5
20260507111539 56 0 0.0 2.6 0.00 0.00 0.00 59 1012.3
20260507111523 56 349 0.0 1.7 0.00 0.00 0.00 60 1013.6
20260507110041 56 323 0.0 2.6 0.00 0.00 0.00 61 1012.4
20260507110023 56 323 0.0 2.6 0.00 0.00 0.00 61 1013.4
20260507104546 56 281 0.9 3.5 0.00 0.00 0.00 60 1012.4
20260507104525 56 281 0.0 3.5 0.00 0.00 0.00 60 1013.4
20260507103036 56 0 0.9 4.3 0.00 0.00 0.00 59 1012.5
20260507103021 56 288 0.9 4.3 0.00 0.00 0.00 59 1013.6
20260507101536 58 344 0.0 5.2 0.00 0.00 0.00 59 1012.6
20260507101521 58 323 0.0 5.2 0.00 0.00 0.00 60 1013.7
20260507100043 57 0 0.9 3.5 0.00 0.00 0.00 60 1012.7
20260507100018 57 56 0.9 3.5 0.00 0.00 0.00 61 1013.6
20260507094537 56 0 0.0 1.7 0.00 0.00 0.00 60 1012.7
20260507094516 56 323 0.0 0.9 0.00 0.00 0.00 60 1013.8
20260507093041 56 0 0.0 2.6 0.00 0.00 0.00 61 1012.7
20260507093017 56 340 0.0 0.9 0.00 0.00 0.00 61 1014.0
20260507091540 56 0 0.0 3.5 0.00 0.00 0.00 62 1012.8
20260507091521 56 311 0.0 2.6 0.00 0.00 0.00 63 1013.9
20260507090035 56 42 0.0 0.9 0.00 0.00 0.00 59 1012.9
20260507090015 56 42 0.0 0.9 0.00 0.00 0.00 60 1014.0
20260507084551 56 0 0.0 1.7 0.00 0.00 0.00 61 1013.0
20260507084516 56 9 0.0 1.7 0.00 0.00 0.00 61 1014.0
20260507083039 56 17 0.9 5.2 0.00 0.00 0.00 59 1012.9
20260507083014 56 17 0.9 5.2 0.00 0.00 0.00 60 1014.2
20260507081540 56 0 0.0 2.6 0.00 0.00 0.00 58 1013.0
20260507081511 56 57 0.0 1.7 0.00 0.00 0.00 58 1014.2
20260507080035 55 0 0.0 3.5 0.00 0.00 0.00 60 1013.0
20260507080008 55 326 0.0 3.5 0.00 0.00 0.00 60 1014.2
20260507074534 54 217 0.0 2.6 0.00 0.00 0.00 60 1012.9
20260507074507 54 217 0.0 1.7 0.00 0.00 0.00 60 1014.1
20260507073040 55 0 0.0 1.7 0.00 0.00 0.00 60 1013.0
20260507073007 55 138 0.0 1.7 0.00 0.00 0.00 61 1014.2
20260507071544 54 0 0.0 1.7 0.00 0.00 0.00 61 1012.9
20260507071504 54 139 0.0 1.7 0.00 0.00 0.00 61 1014.1
20260507070105 52 139 0.0 0.0 0.00 0.00 0.00 72 1014.1
20260507070054 52 0 0.0 0.0 0.00 0.00 0.00 73 1012.8
20260507064657 50 139 0.0 0.9 0.00 0.00 0.00 77 1014.0
20260507064544 50 0 0.0 2.6 0.00 0.00 0.00 77 1012.7
20260507063058 50 223 0.0 0.9 0.00 0.00 0.00 80 1013.9
20260507063033 50 0 0.0 0.9 0.00 0.00 0.00 79 1012.7
20260507061549 49 223 0.0 0.0 0.00 0.00 0.00 80 1014.0
20260507061541 49 0 0.0 0.0 0.00 0.00 0.00 80 1012.7
20260507060107 49 223 0.0 0.0 0.00 0.00 0.00 80 1014.0
20260507060043 49 0 0.0 0.0 0.00 0.00 0.00 80 1012.7
20260507054548 49 223 0.0 0.9 0.00 0.00 0.00 80 1013.9
20260507054541 49 0 0.0 0.9 0.00 0.00 0.00 80 1012.7
20260507053041 49 223 0.0 0.0 0.00 0.00 0.00 80 1013.9
20260507053038 49 0 0.0 0.0 0.00 0.00 0.00 79 1012.6
20260507051553 49 225 0.0 0.0 0.00 0.00 0.00 80 1013.9
20260507051534 49 0 0.0 0.0 0.00 0.00 0.00 79 1012.7
20260507050044 49 223 0.0 0.0 0.00 0.00 0.00 79 1013.7
20260507044550 49 0 0.0 0.0 0.00 0.00 0.00 78 1012.5
20260507044537 49 223 0.0 0.0 0.00 0.00 0.00 79 1013.7
20260507043040 50 0 0.0 0.0 0.00 0.00 0.00 78 1012.6
20260507043035 49 223 0.0 0.0 0.00 0.00 0.00 78 1013.7
20260507041544 50 0 0.0 0.0 0.00 0.00 0.00 77 1012.7
20260507041533 50 223 0.0 0.0 0.00 0.00 0.00 78 1013.7
20260507040036 50 0 0.0 0.0 0.00 0.00 0.00 76 1012.6
20260507040032 50 223 0.0 0.0 0.00 0.00 0.00 77 1013.7
20260507034539 50 0 0.0 0.9 0.00 0.00 0.00 75 1012.6
20260507034530 50 223 0.0 0.9 0.00 0.00 0.00 75 1013.6
20260507033040 50 0 0.0 0.9 0.00 0.00 0.00 75 1012.7
20260507033029 50 223 0.0 0.9 0.00 0.00 0.00 76 1013.6
20260507031539 50 0 0.0 0.9 0.00 0.00 0.00 76 1012.7
20260507031528 50 223 0.0 0.9 0.00 0.00 0.00 76 1013.7
20260507030042 51 0 0.0 0.0 0.00 0.00 0.00 75 1012.7
20260507030029 51 223 0.0 0.0 0.00 0.00 0.00 76 1013.8
20260507024543 51 0 0.0 0.0 0.00 0.00 0.00 75 1012.8
20260507024527 51 223 0.0 0.0 0.00 0.00 0.00 76 1013.9
20260507023034 51 0 0.0 0.9 0.00 0.00 0.00 75 1012.8
20260507023025 51 223 0.0 0.0 0.00 0.00 0.00 76 1014.0
20260507021547 51 0 0.0 2.6 0.00 0.00 0.00 75 1012.9
20260507021522 51 234 0.0 2.6 0.00 0.00 0.00 75 1014.1